sat.trackr.live / text

‹ back to catalog

STARLINK-33707

NORAD 63401 · 2025-065C

PAYLOAD ACTIVE UNKNOWN

§ Identity

Operator
Country
US
Launch date
2025-03-31
Launch site
AFETR
Launch vehicle
Mass (kg)
RCS (m²)

Purposes: comms

External: N2YO · Heavens-Above · Gunter

§ Orbital elements

Epoch: 2026-05-25T01:48:24.057216Z

Period
94.27 min
Inclination
43.0041°
Eccentricity
0.0001423
Mean motion
15.27594063 rev/d
Perigee alt
482.0 km
Apogee alt
484.0 km
Semi-major
6,861.1 km
B*
7.6091e-4
RAAN
35.5679°
Arg perigee
268.3972°
Mean anomaly
91.6716°
Rev number
6,452

§ Raw data

STARLINK-337071 63401U 25065C   26145.07527844  .00020744  00000+0  76091-3 0  99992 63401  43.0041  35.5679 0001423 268.3972  91.6716 15.27594063 64529

JSON: /api/v1/satellites/63401 · /tle

For live sub-satellite position, see the globe view (requires WebGL).

§ Visibility from observer

Set your observer location to see the next 7 days of passes ≥ 10°. The values pass through the URL so the page stays shareable.

No JS? Fill the form by hand. The geolocation button needs JavaScript.